Lid_Strength_Index
1 -1 -1 -2 -2 -1 -2 -2 -2 -2 -2 -2 -2 -2 -2 -2 -2 -2 -2 -2 -2 -2 -2 -2 -2 -2 -2 -2 -2 -2 -2 -2 -3 -3 -2 -2 -2 -2 -2 -2 -2 -2 -2
-0 -1 -1 -2 -2 -2 -2 -2 -2 -2 -2 -2 -2 -2 -2 -2 -2 -2 -2 -2 -2 -2 -2 -2 -2 -2 -2 -2 -2 -2 -2 -2 -2 -3 -3 -3 -2 -2 -2 -2 -2 -1 -2
-0 -1 -1 -1 -2 -2 -2 -1 -2 -2 -2 -2 -2 -2 -2 -2 -2 -2 -2 -2 -2 -2 -2 -2 -2 -2 -2 -2 -2 -2 -2 -2 -2 -2 -3 -2 -2 -1 -2 -2 -1 -2 -1
-0 -1 -1 -1 -1 -2 -2 -2 -2 -2 -2 -2 -2 -2 -2 -2 -2 -2 -2 -2 -2 -2 -2 -2 -2 -2 -1 -1 -2 -2 -2 -2 -2 -2 -1 -1 -1 -1 -2 -1 -1 -1 -2
-0 -1 -1 -1 -1 -2 -2 -2 -2 -2 -2 -3 -2 -2 -2 -2 -2 -2 -2 -2 -2 -2 -2 -2 -2 -2 -2 -2 -2 -2 -1 -2 -2 -1 -1 -1 -1 -1 -1 -1 -1 -1 -1
-0 -0 -1 -1 -2 -2 -2 -2 -2 -2 -3 -2 -2 -2 -2 -2 -2 -2 -2 -2 -2 -2 -2 -2 -2 -2 -2 -2 -2 -2 -1 -1 -2 -1 -1 -1 -1 -1 -1 -0 -1 -1 -1
-0 -0 -1 -1 -2 -2 -2 -3 -3 -2 -3 -3 -3 -2 -2 -2 -2 -2 -2 -2 -2 -2 -2 -2 -2 -2 -2 -2 -2 -2 -1 -2 -0 -1 -1 -1 -1 -1 -1 -1 -0 -0 -0
0 -0 -0 -0 -1 -2 -2 -2 -2 -2 -2 -3 -2 -2 -2 -2 -2 -2 -2 -2 -1 -2 -2 -2 -2 -2 -2 -2 -2 -1 -1 -1 -0 -0 -0 -0 -1 -1 -1 -0 -0 0 0
0 0 0 -0 -0 -0 -1 -2 -2 -2 -2 -2 -2 -2 -2 -2 -2 -2 -2 -2 -2 -2 -2 -2 -2 -2 -2 -2 -1 -1 -0 -0 -0 0 0 -0 -1 -1 -0 0 0 0 0
1 0 1 0 -0 -1 -0 1 -1 -1 -1 -1 -1 -1 -0 -1 -1 -1 -1 -2 -2 -2 -2 -2 -2 -2 -1 -2 -1 -1 0 0 -0 0 0 0 -1 -0 -0 0 1 1 1
1 1 1 1 -0 -1 -1 0 1 0 0 0 -0 1 0 -2 -2 -1 -0 -1 -2 -2 -2 -2 -2 -2 -1 -1 -1 -1 0 -1 -1 -1 0 0 -0 0 1 1 1 1 1
2 1 1 1 -1 -0 -1 -1 -1 -1 -1 -1 -1 -2 -2 -2 -2 -1 0 -0 -1 -1 -1 -2 -2 -1 -0 -1 -1 -0 -1 -1 -1 -1 -0 -1 0 0 1 1 2 2 2
1 1 1 1 -0 0 -1 -1 -1 -1 -1 -1 -1 -2 -2 -1 -2 -1 -2 -2 -2 0 -1 -2 -1 -1 -2 -2 -2 -2 -1 -1 -1 -1 -0 -1 0 0 0 1 2 2 2
2 1 1 0 0 -0 -1 -1 -1 -1 -1 -1 -1 -1 -1 -1 -1 -1 -1 -1 -2 -2 -1 -1 -1 -1 -1 -1 -1 -1 -1 -1 -0 -0 -0 -0 -1 0 0 1 1 1 2
2 1 0 -0 0 -0 -0 -0 -1 0 -1 -1 -1 -1 -1 -1 -1 -1 -1 -1 -1 -1 -1 -1 -1 -1 -1 -1 -1 -1 -1 -1 -1 -1 -1 1 -1 -1 -0 0 0 1 1
1 1 0 0 0 0 -0 -0 -0 -1 -0 -1 -1 -1 -1 -1 -1 -1 -1 -1 -1 -1 -1 -1 -1 -1 -1 -1 -1 -1 -1 -1 -1 -1 -1 -1 1 -1 -1 -0 -0 0 1
1 1 0 0 -0 -0 1 0 -1 -1 -1 -0 -1 -1 -1 -1 -1 -1 -1 -1 -1 -1 -1 -1 -1 -1 -1 -1 -1 -1 -1 -1 -1 -1 -1 -1 -0 1 -1 -1 -0 -0 -0
3 1 0 -0 -0 -0 -0 0 -0 -0 -1 -0 -0 -1 -1 -1 -1 -1 -1 -1 -1 -1 -1 -1 -1 -0 -0 -0 -0 -1 -1 -1 -1 -1 -1 -0 -0 -0 0 -0 -1 -1 -1
6 7 4 0 0 0 -0 -0 -0 -0 -0 -0 1 -0 -1 -1 -1 -1 -1 -1 -1 -0 -0 -0 -0 -0 0 1 1 0 0 0 0 0 0 0 0 0 -0 0 1 1 -1
7 7 8 6 4 1 -0 -0 -0 0 -0 -0 0 1 0 -0 -0 -0 -1 -1 -1 -0 -0 0 1 1 1 1 3 3 2 2 2 2 2 1 1 1 1 1 1 1 2
8 7 7 8 7 6 1 1 1 1 1 1 -0 0 1 1 1 1 -0 -1 -1 -0 -0 0 1 2 3 3 4 3 4 3 2 2 2 2 2 2 2 1 1 1 1
9 9 8 8 9 8 6 2 0 1 0 0 -0 1 1 1 1 1 1 0 -1 -0 0 0 1 2 2 4 4 5 5 3 3 3 2 3 3 2 3 2 2 2 2
10 10 9 8 8 8 7 5 0 0 0 1 1 1 1 1 1 -0 0 0 -0 -0 0 0 0 2 3 3 4 3 6 6 6 5 5 4 4 4 3 4 3 3 2
10 10 10 9 8 7 8 6 6 2 3 1 1 1 1 0 1 1 1 1 -0 -0 0 -0 -0 1 1 3 4 4 4 4 7 6 4 5 5 5 5 4 4 4 4
9 10 9 9 9 7 7 7 6 5 1 1 1 1 1 1 1 1 1 1 1 1 1 0 1 1 2 2 4 5 5 5 6 7 5 4 5 5 4 4 4 4 4
10 9 10 10 9 8 8 7 6 6 5 2 2 1 1 1 1 1 1 1 1 1 1 2 1 2 3 3 4 4 5 5 6 7 7 6 6 3 3 4 4 5 4